Time,TemperatureF,DewpointF,PressureIn,WindDirection,WindDirectionDegrees,WindSpeedMPH,WindSpeedGustMPH,Humidity,HourlyPrecipIn,Conditions,Clouds,dailyrainin,SoftwareType,DateUTC
2013-02-27 00:02:00,71.0,-99.9,29.92,NW,323,5.0,6.0,-999,-99.99,,,-99.99,,2013-02-27 05:02:00,
2013-02-27 00:12:00,71.0,-99.9,29.92,NW,322,6.0,6.0,-999,-99.99,,,-99.99,,2013-02-27 05:12:00,
2013-02-27 00:22:00,71.0,-99.9,29.92,NW,321,5.0,6.0,-999,-99.99,,,-99.99,,2013-02-27 05:22:00,
2013-02-27 00:32:00,71.0,-99.9,29.92,NW,318,6.0,7.0,-999,-99.99,,,-99.99,,2013-02-27 05:32:00,
2013-02-27 00:42:00,71.0,-99.9,29.92,NW,307,5.0,6.0,-999,-99.99,,,-99.99,,2013-02-27 05:42:00,
2013-02-27 00:52:00,71.0,-99.9,29.92,WNW,303,6.0,7.0,-999,-99.99,,,-99.99,,2013-02-27 05:52:00,
2013-02-27 01:02:00,71.0,-99.9,29.92,NW,309,6.0,7.0,-999,-99.99,,,-99.99,,2013-02-27 06:02:00,
2013-02-27 01:11:00,71.0,-99.9,29.92,NW,311,6.0,6.0,-999,-99.99,,,-99.99,,2013-02-27 06:11:00,
2013-02-27 01:22:00,71.0,-99.9,29.92,NW,310,6.0,6.0,-999,-99.99,,,-99.99,,2013-02-27 06:22:00,
2013-02-27 01:33:00,71.0,-99.9,29.92,NW,316,7.0,8.0,-999,-99.99,,,-99.99,,2013-02-27 06:33:00,
2013-02-27 01:42:00,71.0,-99.9,29.92,NW,315,7.0,7.0,-999,-99.99,,,-99.99,,2013-02-27 06:42:00,
2013-02-27 01:52:00,71.0,-99.9,29.92,NW,310,8.0,9.0,-999,-99.99,,,-99.99,,2013-02-27 06:52:00,
2013-02-27 02:01:00,71.0,-99.9,29.92,NW,309,7.0,9.0,-999,-99.99,,,-99.99,,2013-02-27 07:01:00,
2013-02-27 02:12:00,71.0,-99.9,29.93,WNW,302,8.0,9.0,-999,-99.99,,,-99.99,,2013-02-27 07:12:00,
2013-02-27 02:22:00,71.0,-99.9,29.92,NW,311,7.0,8.0,-999,-99.99,,,-99.99,,2013-02-27 07:22:00,
2013-02-27 02:32:00,71.0,-99.9,29.92,NW,307,6.0,8.0,-999,-99.99,,,-99.99,,2013-02-27 07:32:00,
2013-02-27 02:42:00,71.0,-99.9,29.91,NW,304,6.0,7.0,-999,-99.99,,,-99.99,,2013-02-27 07:42:00,
2013-02-27 02:52:00,71.0,-99.9,29.91,WNW,295,5.0,8.0,-999,-99.99,,,-99.99,,2013-02-27 07:52:00,
2013-02-27 03:01:00,71.0,-99.9,29.91,WNW,302,6.0,7.0,-999,-99.99,,,-99.99,,2013-02-27 08:01:00,
2013-02-27 03:12:00,71.0,-99.9,29.91,WNW,301,5.0,8.0,-999,-99.99,,,-99.99,,2013-02-27 08:12:00,
2013-02-27 03:22:00,70.0,-99.9,29.91,WNW,298,6.0,7.0,-999,-99.99,,,-99.99,,2013-02-27 08:22:00,
2013-02-27 03:32:00,70.0,-99.9,29.90,NW,308,5.0,6.0,-999,-99.99,,,-99.99,,2013-02-27 08:32:00,
2013-02-27 03:42:00,70.0,-99.9,29.90,NW,307,8.0,9.0,-999,-99.99,,,-99.99,,2013-02-27 08:42:00,
2013-02-27 03:53:00,70.0,-99.9,29.90,NW,308,8.0,9.0,-999,-99.99,,,-99.99,,2013-02-27 08:53:00,
2013-02-27 04:02:00,70.0,-99.9,29.90,NW,306,7.0,9.0,-999,-99.99,,,-99.99,,2013-02-27 09:02:00,
2013-02-27 04:12:00,70.0,-99.9,29.90,NW,310,6.0,7.0,-999,-99.99,,,-99.99,,2013-02-27 09:12:00,
2013-02-27 04:22:00,70.0,-99.9,29.90,NW,310,8.0,9.0,-999,-99.99,,,-99.99,,2013-02-27 09:22:00,
2013-02-27 04:32:00,70.0,-99.9,29.91,NW,312,10.0,11.0,-999,-99.99,,,-99.99,,2013-02-27 09:32:00,
2013-02-27 04:42:00,71.0,-99.9,29.92,NW,319,11.0,13.0,-999,-99.99,,,-99.99,,2013-02-27 09:42:00,
2013-02-27 04:52:00,71.0,-99.9,29.92,NW,319,12.0,15.0,-999,-99.99,,,-99.99,,2013-02-27 09:52:00,
2013-02-27 05:01:00,71.0,-99.9,29.92,NW,313,11.0,14.0,-999,-99.99,,,-99.99,,2013-02-27 10:01:00,
2013-02-27 05:12:00,71.0,-99.9,29.92,NW,320,12.0,14.0,-999,-99.99,,,-99.99,,2013-02-27 10:12:00,
2013-02-27 05:22:00,71.0,-99.9,29.93,NW,320,13.0,15.0,-999,-99.99,,,-99.99,,2013-02-27 10:22:00,
2013-02-27 05:32:00,70.0,-99.9,29.93,NW,318,12.0,15.0,-999,-99.99,,,-99.99,,2013-02-27 10:32:00,
2013-02-27 05:42:00,70.0,-99.9,29.93,NW,325,13.0,15.0,-999,-99.99,,,-99.99,,2013-02-27 10:42:00,
2013-02-27 05:53:00,70.0,-99.9,29.93,NW,323,14.0,16.0,-999,-99.99,,,-99.99,,2013-02-27 10:53:00,
2013-02-27 06:03:00,70.0,-99.9,29.93,NW,322,12.0,14.0,-999,-99.99,,,-99.99,,2013-02-27 11:03:00,
2013-02-27 06:12:00,70.0,-99.9,29.93,NW,325,12.0,13.0,-999,-99.99,,,-99.99,,2013-02-27 11:12:00,
2013-02-27 06:22:00,70.0,-99.9,29.93,NNW,330,11.0,13.0,-999,-99.99,,,-99.99,,2013-02-27 11:22:00,
2013-02-27 06:32:00,71.0,-99.9,29.93,NW,324,11.0,13.0,-999,-99.99,,,-99.99,,2013-02-27 11:32:00,
2013-02-27 06:42:00,70.0,-99.9,29.94,NNW,328,11.0,11.0,-999,-99.99,,,-99.99,,2013-02-27 11:42:00,
2013-02-27 06:52:00,70.0,-99.9,29.94,NNW,330,12.0,14.0,-999,-99.99,,,-99.99,,2013-02-27 11:52:00,
2013-02-27 07:02:00,70.0,-99.9,29.94,NNW,331,9.0,11.0,-999,-99.99,,,-99.99,,2013-02-27 12:02:00,
2013-02-27 07:13:00,70.0,-99.9,29.94,NNW,331,9.0,11.0,-999,-99.99,,,-99.99,,2013-02-27 12:13:00,
2013-02-27 07:22:00,70.0,-99.9,29.94,NNW,334,10.0,12.0,-999,-99.99,,,-99.99,,2013-02-27 12:22:00,
2013-02-27 07:33:00,70.0,-99.9,29.95,NNW,333,12.0,14.0,-999,-99.99,,,-99.99,,2013-02-27 12:33:00,
2013-02-27 07:42:00,70.0,-99.9,29.95,NNW,334,12.0,14.0,-999,-99.99,,,-99.99,,2013-02-27 12:42:00,
2013-02-27 07:53:00,70.0,-99.9,29.95,NNW,327,11.0,14.0,-999,-99.99,,,-99.99,,2013-02-27 12:53:00,
2013-02-27 08:03:00,71.0,-99.9,29.96,NNW,336,11.0,14.0,-999,-99.99,,,-99.99,,2013-02-27 13:03:00,
2013-02-27 08:12:00,69.0,-99.9,29.96,NE,41,4.0,7.0,-999,-99.99,,,-99.99,,2013-02-27 13:12:00,
2013-02-27 08:22:00,69.0,-99.9,29.96,NE,47,4.0,6.0,-999,-99.99,,,-99.99,,2013-02-27 13:22:00,
2013-02-27 08:32:00,69.0,-99.9,29.96,NNE,12,4.0,6.0,-999,-99.99,,,-99.99,,2013-02-27 13:32:00,
2013-02-27 08:42:00,69.0,-99.9,29.96,NNE,25,4.0,5.0,-999,-99.99,,,-99.99,,2013-02-27 13:42:00,
2013-02-27 08:53:00,69.0,-99.9,29.96,NE,39,4.0,7.0,-999,-99.99,,,-99.99,,2013-02-27 13:53:00,
2013-02-27 09:02:00,69.0,-99.9,29.96,NNE,12,4.0,6.0,-999,-99.99,,,-99.99,,2013-02-27 14:02:00,
2013-02-27 09:12:00,70.0,-99.9,29.97,NNE,22,3.0,5.0,-999,-99.99,,,-99.99,,2013-02-27 14:12:00,
2013-02-27 09:22:00,70.0,-99.9,29.98,NNE,17,4.0,7.0,-999,-99.99,,,-99.99,,2013-02-27 14:22:00,
2013-02-27 09:32:00,70.0,-99.9,29.97,North,353,4.0,6.0,-999,-99.99,,,-99.99,,2013-02-27 14:32:00,
2013-02-27 09:42:00,70.0,-99.9,29.98,North,4,5.0,7.0,-999,-99.99,,,-99.99,,2013-02-27 14:42:00,
2013-02-27 09:53:00,70.0,-99.9,29.98,North,352,5.0,8.0,-999,-99.99,,,-99.99,,2013-02-27 14:53:00,
2013-02-27 10:02:00,70.0,-99.9,29.98,NNW,336,6.0,9.0,-999,-99.99,,,-99.99,,2013-02-27 15:02:00,
2013-02-27 10:13:00,70.0,-99.9,30.00,NNW,335,5.0,8.0,-999,-99.99,,,-99.99,,2013-02-27 15:13:00,
2013-02-27 10:23:00,70.0,-99.9,30.00,North,350,7.0,9.0,-999,-99.99,,,-99.99,,2013-02-27 15:23:00,
2013-02-27 10:32:00,70.0,-99.9,30.00,NNW,338,9.0,12.0,-999,-99.99,,,-99.99,,2013-02-27 15:32:00,
2013-02-27 10:42:00,70.0,-99.9,29.99,NNW,337,11.0,11.0,-999,-99.99,,,-99.99,,2013-02-27 15:42:00,
2013-02-27 10:52:00,70.0,-99.9,30.00,NNW,328,9.0,10.0,-999,-99.99,,,-99.99,,2013-02-27 15:52:00,
2013-02-27 11:02:00,70.0,-99.9,30.00,NNW,332,8.0,9.0,-999,-99.99,,,-99.99,,2013-02-27 16:02:00,
2013-02-27 11:12:00,70.0,-99.9,30.00,NNW,330,9.0,11.0,-999,-99.99,,,-99.99,,2013-02-27 16:12:00,
2013-02-27 11:22:00,70.0,-99.9,30.00,NNW,328,10.0,12.0,-999,-99.99,,,-99.99,,2013-02-27 16:22:00,
2013-02-27 11:32:00,70.0,-99.9,30.00,NNW,331,10.0,12.0,-999,-99.99,,,-99.99,,2013-02-27 16:32:00,
2013-02-27 11:42:00,70.0,-99.9,30.00,NNW,348,8.0,11.0,-999,-99.99,,,-99.99,,2013-02-27 16:42:00,
2013-02-27 11:52:00,69.0,-99.9,30.00,NNW,345,8.0,10.0,-999,-99.99,,,-99.99,,2013-02-27 16:52:00,
2013-02-27 12:02:00,70.0,-99.9,30.01,NNW,346,6.0,9.0,-999,-99.99,,,-99.99,,2013-02-27 17:02:00,
2013-02-27 12:11:00,70.0,-99.9,30.01,NNW,346,6.0,9.0,-999,-99.99,,,-99.99,,2013-02-27 17:11:00,
2013-02-27 12:22:00,70.0,-99.9,29.99,NNW,336,3.0,4.0,-999,-99.99,,,-99.99,,2013-02-27 17:22:00,
2013-02-27 12:32:00,71.0,-99.9,29.99,NW,306,2.0,3.0,-999,-99.99,,,-99.99,,2013-02-27 17:32:00,
2013-02-27 12:42:00,71.0,-99.9,29.98,WNW,297,1.0,3.0,-999,-99.99,,,-99.99,,2013-02-27 17:42:00,
2013-02-27 12:52:00,71.0,-99.9,29.98,NW,325,2.0,2.0,-999,-99.99,,,-99.99,,2013-02-27 17:52:00,
2013-02-27 13:02:00,71.0,-99.9,29.98,NW,306,2.0,3.0,-999,-99.99,,,-99.99,,2013-02-27 18:02:00,
2013-02-27 13:11:00,70.0,-99.9,29.98,NW,308,4.0,4.0,-999,-99.99,,,-99.99,,2013-02-27 18:11:00,
2013-02-27 13:22:00,70.0,-99.9,29.98,NW,308,3.0,4.0,-999,-99.99,,,-99.99,,2013-02-27 18:22:00,
2013-02-27 13:32:00,70.0,-99.9,29.98,NW,308,7.0,9.0,-999,-99.99,,,-99.99,,2013-02-27 18:32:00,
2013-02-27 13:42:00,68.0,-99.9,29.96,NW,316,10.0,11.0,-999,-99.99,,,-99.99,,2013-02-27 18:42:00,
2013-02-27 13:52:00,68.0,-99.9,29.96,NW,307,10.0,11.0,-999,-99.99,,,-99.99,,2013-02-27 18:52:00,
2013-02-27 14:02:00,68.0,-99.9,29.97,WNW,294,9.0,11.0,-999,-99.99,,,-99.99,,2013-02-27 19:02:00,
2013-02-27 14:12:00,69.0,-99.9,29.97,WNW,289,6.0,9.0,-999,-99.99,,,-99.99,,2013-02-27 19:12:00,
2013-02-27 14:22:00,69.0,-99.9,29.96,West,266,6.0,7.0,-999,-99.99,,,-99.99,,2013-02-27 19:22:00,
2013-02-27 14:32:00,69.0,-99.9,29.96,West,274,6.0,7.0,-999,-99.99,,,-99.99,,2013-02-27 19:32:00,
2013-02-27 14:42:00,68.0,-99.9,29.97,WNW,295,8.0,11.0,-999,-99.99,,,-99.99,,2013-02-27 19:42:00,
2013-02-27 14:52:00,68.0,-99.9,29.97,WNW,287,8.0,9.0,-999,-99.99,,,-99.99,,2013-02-27 19:52:00,
2013-02-27 15:02:00,67.0,-99.9,29.97,NW,306,5.0,7.0,-999,-99.99,,,-99.99,,2013-02-27 20:02:00,
2013-02-27 15:12:00,67.0,-99.9,29.97,WNW,302,4.0,7.0,-999,-99.99,,,-99.99,,2013-02-27 20:12:00,
2013-02-27 15:22:00,67.0,-99.9,29.96,WSW,241,2.0,4.0,-999,-99.99,,,-99.99,,2013-02-27 20:22:00,
2013-02-27 15:32:00,68.0,-99.9,29.96,WSW,237,2.0,3.0,-999,-99.99,,,-99.99,,2013-02-27 20:32:00,
2013-02-27 15:42:00,67.0,-99.9,29.96,NW,306,4.0,4.0,-999,-99.99,,,-99.99,,2013-02-27 20:42:00,
2013-02-27 15:53:00,67.0,-99.9,29.96,NW,310,4.0,5.0,-999,-99.99,,,-99.99,,2013-02-27 20:53:00,
2013-02-27 16:02:00,67.0,-99.9,29.96,NW,309,4.0,7.0,-999,-99.99,,,-99.99,,2013-02-27 21:02:00,
2013-02-27 16:12:00,67.0,-99.9,29.96,WNW,295,4.0,6.0,-999,-99.99,,,-99.99,,2013-02-27 21:12:00,
2013-02-27 16:22:00,68.0,-99.9,29.95,NW,307,2.0,4.0,-999,-99.99,,,-99.99,,2013-02-27 21:22:00,
2013-02-27 16:32:00,68.0,-99.9,29.95,NNW,334,2.0,4.0,-999,-99.99,,,-99.99,,2013-02-27 21:32:00,
2013-02-27 16:42:00,68.0,-99.9,29.95,NW,304,4.0,5.0,-999,-99.99,,,-99.99,,2013-02-27 21:42:00,
2013-02-27 16:52:00,68.0,-99.9,29.95,NW,316,5.0,7.0,-999,-99.99,,,-99.99,,2013-02-27 21:52:00,
2013-02-27 17:02:00,68.0,-99.9,29.95,NW,309,6.0,8.0,-999,-99.99,,,-99.99,,2013-02-27 22:02:00,
2013-02-27 17:12:00,68.0,-99.9,29.95,NW,314,5.0,6.0,-999,-99.99,,,-99.99,,2013-02-27 22:12:00,
2013-02-27 17:22:00,68.0,-99.9,29.95,NW,310,5.0,6.0,-999,-99.99,,,-99.99,,2013-02-27 22:22:00,
2013-02-27 17:32:00,68.0,-99.9,29.94,WNW,294,4.0,6.0,-999,-99.99,,,-99.99,,2013-02-27 22:32:00,
2013-02-27 17:42:00,68.0,-99.9,29.95,NW,308,3.0,4.0,-999,-99.99,,,-99.99,,2013-02-27 22:42:00,
2013-02-27 17:52:00,68.0,-99.9,29.95,WNW,298,6.0,7.0,-999,-99.99,,,-99.99,,2013-02-27 22:52:00,
2013-02-27 18:02:00,68.0,-99.9,29.95,NW,304,7.0,7.0,-999,-99.99,,,-99.99,,2013-02-27 23:02:00,
2013-02-27 18:12:00,68.0,-99.9,29.95,WNW,300,6.0,9.0,-999,-99.99,,,-99.99,,2013-02-27 23:12:00,
2013-02-27 18:22:00,68.0,-99.9,29.96,WNW,301,7.0,9.0,-999,-99.99,,,-99.99,,2013-02-27 23:22:00,
2013-02-27 18:32:00,68.0,-99.9,29.96,WNW,303,9.0,11.0,-999,-99.99,,,-99.99,,2013-02-27 23:32:00,
2013-02-27 18:42:00,68.0,-99.9,29.97,WNW,291,9.0,11.0,-999,-99.99,,,-99.99,,2013-02-27 23:42:00,
2013-02-27 18:53:00,68.0,-99.9,29.97,WNW,296,7.0,10.0,-999,-99.99,,,-99.99,,2013-02-27 23:53:00,
2013-02-27 19:02:00,68.0,-99.9,29.96,WNW,296,6.0,7.0,-999,-99.99,,,-99.99,,2013-02-28 00:02:00,
2013-02-27 19:13:00,68.0,-99.9,29.97,West,271,6.0,7.0,-999,-99.99,,,-99.99,,2013-02-28 00:13:00,
2013-02-27 19:22:00,68.0,-99.9,29.97,West,259,5.0,7.0,-999,-99.99,,,-99.99,,2013-02-28 00:22:00,
2013-02-27 19:32:00,68.0,-99.9,29.97,WNW,297,6.0,7.0,-999,-99.99,,,-99.99,,2013-02-28 00:32:00,
2013-02-27 19:42:00,68.0,-99.9,29.97,WNW,303,9.0,10.0,-999,-99.99,,,-99.99,,2013-02-28 00:42:00,
2013-02-27 19:52:00,68.0,-99.9,29.97,NW,308,9.0,10.0,-999,-99.99,,,-99.99,,2013-02-28 00:52:00,
2013-02-27 20:01:00,68.0,-99.9,29.97,NW,309,9.0,11.0,-999,-99.99,,,-99.99,,2013-02-28 01:01:00,
2013-02-27 20:11:00,68.0,-99.9,29.97,NW,312,8.0,10.0,-999,-99.99,,,-99.99,,2013-02-28 01:11:00,
2013-02-27 20:22:00,68.0,-99.9,29.97,NW,315,8.0,10.0,-999,-99.99,,,-99.99,,2013-02-28 01:22:00,
2013-02-27 20:32:00,68.0,-99.9,29.97,NW,317,7.0,10.0,-999,-99.99,,,-99.99,,2013-02-28 01:32:00,
2013-02-27 20:42:00,68.0,-99.9,29.97,NW,317,8.0,11.0,-999,-99.99,,,-99.99,,2013-02-28 01:42:00,
2013-02-27 20:52:00,68.0,-99.9,29.97,NW,320,10.0,11.0,-999,-99.99,,,-99.99,,2013-02-28 01:52:00,
2013-02-27 21:01:00,68.0,-99.9,29.97,NW,321,11.0,13.0,-999,-99.99,,,-99.99,,2013-02-28 02:01:00,
2013-02-27 21:11:00,68.0,-99.9,29.97,NNW,334,12.0,14.0,-999,-99.99,,,-99.99,,2013-02-28 02:11:00,
2013-02-27 21:22:00,68.0,-99.9,29.97,NNW,330,11.0,14.0,-999,-99.99,,,-99.99,,2013-02-28 02:22:00,
2013-02-27 21:32:00,68.0,-99.9,29.98,NNW,327,9.0,12.0,-999,-99.99,,,-99.99,,2013-02-28 02:32:00,
2013-02-27 21:42:00,68.0,-99.9,29.98,NNW,327,9.0,12.0,-999,-99.99,,,-99.99,,2013-02-28 02:42:00,
2013-02-27 21:52:00,68.0,-99.9,29.98,NNW,327,9.0,12.0,-999,-99.99,,,-99.99,,2013-02-28 02:52:00,
2013-02-27 22:02:00,68.0,-99.9,29.99,NW,322,10.0,12.0,-999,-99.99,,,-99.99,,2013-02-28 03:02:00,
2013-02-27 22:11:00,68.0,-99.9,30.00,NW,321,11.0,14.0,-999,-99.99,,,-99.99,,2013-02-28 03:11:00,
2013-02-27 22:22:00,68.0,-99.9,30.01,NNW,327,13.0,14.0,-999,-99.99,,,-99.99,,2013-02-28 03:22:00,
2013-02-27 22:32:00,69.0,-99.9,30.00,NNW,333,12.0,15.0,-999,-99.99,,,-99.99,,2013-02-28 03:32:00,
2013-02-27 22:42:00,68.0,-99.9,30.01,NW,325,14.0,17.0,-999,-99.99,,,-99.99,,2013-02-28 03:42:00,
2013-02-27 22:52:00,68.0,-99.9,30.01,NNW,328,11.0,14.0,-999,-99.99,,,-99.99,,2013-02-28 03:52:00,
2013-02-27 23:02:00,68.0,-99.9,30.00,NNW,338,13.0,14.0,-999,-99.99,,,-99.99,,2013-02-28 04:02:00,
2013-02-27 23:11:00,68.0,-99.9,30.00,NNW,336,13.0,15.0,-999,-99.99,,,-99.99,,2013-02-28 04:11:00,
2013-02-27 23:22:00,68.0,-99.9,30.00,NW,325,11.0,14.0,-999,-99.99,,,-99.99,,2013-02-28 04:22:00,
2013-02-27 23:32:00,68.0,-99.9,30.00,NNW,327,13.0,15.0,-999,-99.99,,,-99.99,,2013-02-28 04:32:00,
2013-02-27 23:42:00,68.0,-99.9,30.00,NW,325,11.0,15.0,-999,-99.99,,,-99.99,,2013-02-28 04:42:00,
2013-02-27 23:52:00,68.0,-99.9,30.00,NNW,327,12.0,14.0,-999,-99.99,,,-99.99,,2013-02-28 04:52:00,